KC5TIL Weather Reports


Display with metric or nautical units.
time (UTC)temp
F
wind
direction
speed
MPH
gust
MPH
rain 1hr
in
rain 24hr
in
rain mn
in
humidity
%
barometer
mb
20240227050544 73 315 1.0 2.0 0.00 0.00 0.00 78 1007.0
20240227050043 73 200 1.0 2.0 0.00 0.00 0.00 78 1007.0
20240227045541 73 145 0.0 0.0 0.00 0.00 0.00 77 1007.2
20240227045040 73 204 1.0 3.0 0.00 0.00 0.00 77 1007.0
20240227044540 73 249 3.0 6.0 0.00 0.00 0.00 77 1007.1
20240227044039 73 257 3.0 6.0 0.00 0.00 0.00 76 1007.1
20240227043537 74 226 1.0 2.0 0.00 0.00 0.00 76 1007.1
20240227043036 74 161 0.0 6.0 0.00 0.00 0.00 75 1006.9
20240227042536 74 84 1.0 11.0 0.00 0.00 0.00 75 1006.9
20240227042035 74 194 2.0 2.0 0.00 0.00 0.00 74 1006.8
20240227041534 74 213 1.0 3.0 0.00 0.00 0.00 74 1007.0
20240227041033 75 17 1.0 11.0 0.00 0.00 0.00 73 1006.6
20240227040532 75 130 2.0 3.0 0.00 0.00 0.00 73 1006.9
20240227040030 75 258 1.0 2.0 0.00 0.00 0.00 72 1006.7
20240227035531 75 129 2.0 2.0 0.00 0.00 0.00 71 1006.5
20240227035030 75 265 4.0 7.0 0.00 0.00 0.00 71 1006.6
20240227034528 75 263 3.0 5.0 0.00 0.00 0.00 70 1006.4
20240227034027 75 287 1.0 2.0 0.00 0.00 0.00 70 1006.3
20240227033525 76 0 3.0 5.0 0.00 0.00 0.00 70 1006.2
20240227033023 76 173 2.0 2.0 0.00 0.00 0.00 69 1006.0
20240227032521 76 258 1.0 2.0 0.00 0.00 0.00 69 1005.9
20240227032021 76 299 3.0 6.0 0.00 0.00 0.00 69 1005.8
20240227031519 76 142 3.0 3.0 0.00 0.00 0.00 69 1005.8
20240227031017 76 164 2.0 2.0 0.00 0.00 0.00 69 1005.9
20240227030517 76 29 1.0 1.0 0.00 0.00 0.00 69 1006.1
20240227030016 76 197 1.0 1.0 0.00 0.00 0.00 68 1006.2
20240227025514 77 294 1.0 2.0 0.00 0.00 0.00 68 1005.9
20240227025012 77 239 1.0 3.0 0.00 0.00 0.00 67 1005.9
20240227024511 77 138 1.0 3.0 0.00 0.00 0.00 67 1006.0
20240227024009 77 168 1.0 1.0 0.00 0.00 0.00 66 1005.8
20240227023509 77 217 2.0 2.0 0.00 0.00 0.00 66 1005.9
20240227023009 78 165 0.0 1.0 0.00 0.00 0.00 66 1005.5
20240227022508 78 118 0.0 1.0 0.00 0.00 0.00 65 1005.3
20240227022007 78 189 1.0 3.0 0.00 0.00 0.00 65 1005.4
20240227021505 78 220 2.0 3.0 0.00 0.00 0.00 64 1005.4
20240227021004 78 182 1.0 2.0 0.00 0.00 0.00 64 1005.3
20240227020503 78 205 3.0 3.0 0.00 0.00 0.00 63 1005.2
20240227020002 79 137 1.0 2.0 0.00 0.00 0.00 63 1005.3
20240227015501 79 145 1.0 2.0 0.00 0.00 0.00 62 1005.4
20240227014959 79 37 1.0 1.0 0.00 0.00 0.00 62 1005.1
20240227014458 79 276 1.0 3.0 0.00 0.00 0.00 61 1005.3
20240227013956 79 145 1.0 3.0 0.00 0.00 0.00 61 1005.2
20240227013456 79 167 2.0 3.0 0.00 0.00 0.00 61 1005.2
20240227012955 80 82 1.0 2.0 0.00 0.00 0.00 60 1005.1
20240227012453 80 170 3.0 6.0 0.00 0.00 0.00 59 1005.3
20240227011951 80 220 3.0 3.0 0.00 0.00 0.00 59 1005.1
20240227011450 80 133 2.0 3.0 0.00 0.00 0.00 59 1005.1
20240227010948 81 152 0.0 0.0 0.00 0.00 0.00 57 1004.9
20240227010446 81 123 1.0 1.0 0.00 0.00 0.00 57 1005.2
20240227005945 81 93 1.0 2.0 0.00 0.00 0.00 57 1005.1
20240227005443 81 84 1.0 2.0 0.00 0.00 0.00 56 1005.3
20240227004943 82 147 0.0 0.0 0.00 0.00 0.00 55 1005.1
20240227004442 82 76 1.0 2.0 0.00 0.00 0.00 55 1005.1
20240227003941 82 115 0.0 3.0 0.00 0.00 0.00 54 1004.9
20240227003440 83 107 2.0 2.0 0.00 0.00 0.00 54 1005.0
20240227002939 83 136 1.0 3.0 0.00 0.00 0.00 54 1004.8
20240227002438 83 349 1.0 2.0 0.00 0.00 0.00 53 1004.8
20240227001937 84 86 1.0 3.0 0.00 0.00 0.00 52 1004.7
20240227001436 84 55 1.0 2.0 0.00 0.00 0.00 51 1004.8
20240227000936 84 120 0.0 1.0 0.00 0.00 0.00 50 1004.7
20240227000435 85 115 0.0 1.0 0.00 0.00 0.00 50 1004.8
20240226235934 86 81 1.0 2.0 0.00 0.00 0.00 48 1004.8
20240226235434 87 104 1.0 2.0 0.00 0.00 0.00 46 1004.8
20240226234933 87 123 1.0 1.0 0.00 0.00 0.00 46 1004.7
20240226234431 87 168 1.0 2.0 0.00 0.00 0.00 45 1004.8
20240226233931 87 258 1.0 2.0 0.00 0.00 0.00 45 1004.8
20240226233429 87 148 1.0 3.0 0.00 0.00 0.00 46 1004.5
20240226232928 87 133 0.0 1.0 0.00 0.00 0.00 47 1004.6
20240226232428 88 122 1.0 2.0 0.00 0.00 0.00 45 1004.9
20240226231926 89 111 2.0 2.0 0.00 0.00 0.00 44 1005.0
20240226231425 89 169 0.0 3.0 0.00 0.00 0.00 43 1005.1
20240226230923 89 135 1.0 3.0 0.00 0.00 0.00 43 1005.0
20240226230421 89 200 0.0 2.0 0.00 0.00 0.00 42 1005.1
20240226225919 89 91 1.0 3.0 0.00 0.00 0.00 42 1004.8
20240226225418 90 156 3.0 5.0 0.00 0.00 0.00 42 1004.9
20240226224918 91 180 1.0 3.0 0.00 0.00 0.00 41 1005.1
20240226224417 91 211 4.0 6.0 0.00 0.00 0.00 41 1004.9
20240226223915 91 124 0.0 5.0 0.00 0.00 0.00 41 1005.0
20240226223415 91 253 1.0 2.0 0.00 0.00 0.00 39 1004.9
20240226222914 92 133 2.0 5.0 0.00 0.00 0.00 37 1004.9
20240226222413 94 85 1.0 5.0 0.00 0.00 0.00 36 1005.0
20240226221912 95 217 2.0 8.0 0.00 0.00 0.00 31 1004.9
20240226221412 95 134 2.0 3.0 0.00 0.00 0.00 31 1005.0
20240226220911 95 179 4.0 7.0 0.00 0.00 0.00 28 1005.0
20240226220410 95 279 2.0 2.0 0.00 0.00 0.00 30 1005.1
20240226215909 95 219 3.0 9.0 0.00 0.00 0.00 29 1005.1
20240226215409 95 256 4.0 6.0 0.00 0.00 0.00 28 1005.3
20240226214908 95 215 4.0 5.0 0.00 0.00 0.00 28 1005.4
20240226214407 95 174 2.0 3.0 0.00 0.00 0.00 29 1005.4
20240226213907 95 230 3.0 5.0 0.00 0.00 0.00 25 1005.4
20240226213406 95 255 3.0 3.0 0.00 0.00 0.00 23 1005.4
20240226212906 95 213 2.0 3.0 0.00 0.00 0.00 22 1005.6
20240226212406 95 233 4.0 8.0 0.00 0.00 0.00 22 1005.7
20240226211903 95 181 2.0 3.0 0.00 0.00 0.00 23 1006.0
20240226211403 95 230 2.0 8.0 0.00 0.00 0.00 23 1006.0
20240226210902 96 215 3.0 7.0 0.00 0.00 0.00 22 1006.0
20240226210347 96 208 3.0 7.0 0.00 0.00 0.00 23 1006.3
20240226205846 96 275 5.0 8.0 0.00 0.00 0.00 23 1006.2
20240226205344 95 221 3.0 5.0 0.00 0.00 0.00 24 1006.2
20240226204843 95 271 5.0 7.0 0.00 0.00 0.00 25 1006.4
20240226204344 95 210 2.0 3.0 0.00 0.00 0.00 25 1006.4
20240226203842 95 181 5.0 8.0 0.00 0.00 0.00 25 1006.7
20240226203342 94 268 4.0 5.0 0.00 0.00 0.00 27 1006.8
20240226202841 94 237 5.0 7.0 0.00 0.00 0.00 25 1007.0
20240226202340 95 245 4.0 9.0 0.00 0.00 0.00 24 1007.1
20240226201840 94 223 6.0 7.0 0.00 0.00 0.00 25 1007.1
20240226201338 94 223 4.0 8.0 0.00 0.00 0.00 26 1007.3
20240226200837 94 248 7.0 9.0 0.00 0.00 0.00 25 1007.4
20240226200335 94 239 4.0 8.0 0.00 0.00 0.00 26 1007.3
20240226195834 93 188 2.0 6.0 0.00 0.00 0.00 26 1007.5
20240226195333 93 133 3.0 3.0 0.00 0.00 0.00 30 1007.8
20240226194832 92 170 2.0 3.0 0.00 0.00 0.00 29 1007.9
20240226194332 92 186 0.0 1.0 0.00 0.00 0.00 31 1007.8
20240226193831 92 252 4.0 6.0 0.00 0.00 0.00 29 1007.8
20240226193330 93 228 2.0 7.0 0.00 0.00 0.00 30 1008.0
20240226192829 93 202 1.0 3.0 0.00 0.00 0.00 29 1008.0
20240226192328 93 206 2.0 7.0 0.00 0.00 0.00 28 1008.0
20240226191827 93 258 6.0 8.0 0.00 0.00 0.00 23 1008.4
20240226191325 93 230 4.0 9.0 0.00 0.00 0.00 22 1008.2
20240226190824 93 267 6.0 8.0 0.00 0.00 0.00 22 1008.4
20240226190322 93 230 6.0 8.0 0.00 0.00 0.00 22 1008.7
20240226185822 92 217 7.0 10.0 0.00 0.00 0.00 23 1008.8
20240226185320 92 240 5.0 8.0 0.00 0.00 0.00 27 1009.0
20240226184818 92 213 3.0 5.0 0.00 0.00 0.00 25 1009.0
20240226184317 91 206 2.0 6.0 0.00 0.00 0.00 25 1009.3
20240226183734 91 212 1.0 2.0 0.00 0.00 0.00 27 1009.6
20240226183232 90 175 2.0 5.0 0.00 0.00 0.00 27 1009.8
20240226182730 90 219 4.0 5.0 0.00 0.00 0.00 27 1009.8
20240226182228 89 201 2.0 2.0 0.00 0.00 0.00 29 1010.1
20240226181728 89 239 3.0 3.0 0.00 0.00 0.00 28 1010.2
20240226181226 89 176 4.0 8.0 0.00 0.00 0.00 28 1010.5
20240226180725 89 278 1.0 3.0 0.00 0.00 0.00 29 1010.6
20240226180224 89 222 3.0 8.0 0.00 0.00 0.00 28 1010.6
20240226175721 89 158 1.0 1.0 0.00 0.00 0.00 29 1010.7
20240226175221 90 204 1.0 2.0 0.00 0.00 0.00 30 1010.9
20240226174718 88 220 3.0 3.0 0.00 0.00 0.00 29 1011.1
20240226174217 87 96 0.0 1.0 0.00 0.00 0.00 33 1011.2
20240226173716 87 245 5.0 6.0 0.00 0.00 0.00 31 1011.2
20240226173214 87 203 2.0 2.0 0.00 0.00 0.00 31 1011.1
20240226172712 86 183 2.0 3.0 0.00 0.00 0.00 31 1011.3
20240226172211 86 221 3.0 5.0 0.00 0.00 0.00 31 1011.5
20240226171711 85 184 1.0 1.0 0.00 0.00 0.00 32 1011.4
20240226171210 84 211 2.0 3.0 0.00 0.00 0.00 32 1011.6
20240226170708 84 225 3.0 3.0 0.00 0.00 0.00 31 1011.5
20240226170207 84 240 2.0 2.0 0.00 0.00 0.00 32 1011.5
20240226165705 84 244 1.0 2.0 0.00 0.00 0.00 31 1011.5
20240226165204 84 244 1.0 2.0 0.00 0.00 0.00 31 1011.5
20240226164703 84 244 1.0 2.0 0.00 0.00 0.00 31 1011.6
20240226164201 84 197 2.0 3.0 0.00 0.00 0.00 32 1011.6
20240226163701 81 232 3.0 3.0 0.00 0.00 0.00 32 1011.8
20240226163159 81 232 3.0 3.0 0.00 0.00 0.00 32 1011.9
20240226162657 81 192 2.0 3.0 0.00 0.00 0.00 33 1012.2
20240226162154 81 216 3.0 3.0 0.00 0.00 0.00 33 1012.0
20240226161654 80 218 2.0 2.0 0.00 0.00 0.00 34 1012.2
20240226161154 80 252 2.0 2.0 0.00 0.00 0.00 34 1012.4
20240226160653 79 241 2.0 3.0 0.00 0.00 0.00 34 1012.2
20240226160153 78 178 1.0 1.0 0.00 0.00 0.00 36 1012.4
20240226155651 78 178 1.0 1.0 0.00 0.00 0.00 36 1012.3
20240226155148 78 178 1.0 1.0 0.00 0.00 0.00 36 1012.3
20240226154648 73 167 0.0 0.0 0.00 0.00 0.00 47 1012.5
20240226154147 73 167 0.0 0.0 0.00 0.00 0.00 47 1012.5
20240226153645 73 167 0.0 0.0 0.00 0.00 0.00 47 1012.4
20240226153144 73 167 0.0 0.0 0.00 0.00 0.00 47 1012.5
20240226152643 73 167 0.0 0.0 0.00 0.00 0.00 47 1012.4
20240226152141 73 167 0.0 0.0 0.00 0.00 0.00 47 1012.7
20240226151640 73 167 0.0 0.0 0.00 0.00 0.00 47 1012.5
20240226151139 73 167 0.0 0.0 0.00 0.00 0.00 47 1012.6
20240226150637 73 167 0.0 0.0 0.00 0.00 0.00 47 1012.8
20240226150135 73 167 0.0 0.0 0.00 0.00 0.00 47 1012.8
20240226145633 73 157 1.0 2.0 0.00 0.00 0.00 47 1012.9
20240226145133 0 0.0 0.0 0.00 0.00 0.00 1012.9
20240226144633 0 0.0 0.0 0.00 0.00 0.00 1012.9
20240226144132 0 0.0 0.0 0.00 0.00 0.00 1012.7
20240226143631 0 0.0 0.0 0.00 0.00 0.00 1012.9
20240226143128 0 0.0 0.0 0.00 0.00 0.00 1012.9
20240226142627 0 0.0 0.0 0.00 0.00 0.00 1012.7
20240226142125 0 0.0 0.0 0.00 0.00 0.00 1012.8
20240226141625 0 0.0 0.0 0.00 0.00 0.00 1012.8
20240226141122 0 0.0 0.0 0.00 0.00 0.00 1012.6
20240226140622 0 0.0 0.0 0.00 0.00 0.00 1012.9
20240226140121 0 0.0 0.0 0.00 0.00 0.00 1012.5
20240226135620 0 0.0 0.0 0.00 0.00 0.00 1012.7
20240226135118 0 0.0 0.0 0.00 0.00 0.00 1012.4
20240226134618 0 0.0 0.0 0.00 0.00 0.00 1012.8
20240226134116 57 168 0.0 0.0 0.00 0.00 0.00 73 1012.7
20240226133615 57 168 0.0 0.0 0.00 0.00 0.00 73 1012.4
20240226133113 57 168 0.0 0.0 0.00 0.00 0.00 73 1012.3
20240226132612 57 168 0.0 0.0 0.00 0.00 0.00 73 1012.5
20240226132109 57 168 0.0 0.0 0.00 0.00 0.00 73 1012.4
20240226131608 57 168 0.0 0.0 0.00 0.00 0.00 73 1012.3
20240226131107 57 168 0.0 0.0 0.00 0.00 0.00 73 1012.4
20240226130606 57 168 0.0 0.0 0.00 0.00 0.00 73 1012.3
20240226130105 57 168 0.0 0.0 0.00 0.00 0.00 73 1012.2
20240226125603 57 168 0.0 0.0 0.00 0.00 0.00 73 1012.1
20240226125102 57 168 0.0 0.0 0.00 0.00 0.00 73 1012.0
20240226124601 57 168 0.0 0.0 0.00 0.00 0.00 73 1012.0
20240226124059 58 210 0.0 0.0 0.00 0.00 0.00 73 1012.2
20240226123559 58 210 0.0 0.0 0.00 0.00 0.00 73 1012.0
20240226123056 58 210 0.0 0.0 0.00 0.00 0.00 73 1011.9
20240226122555 58 178 0.0 0.0 0.00 0.00 0.00 75 1011.8
20240226122053 58 172 0.0 0.0 0.00 0.00 0.00 75 1011.9
20240226121552 58 176 0.0 0.0 0.00 0.00 0.00 76 1011.9
20240226121049 57 179 0.0 0.0 0.00 0.00 0.00 78 1011.8
20240226120548 57 174 0.0 0.0 0.00 0.00 0.00 77 1011.8
20240226120047 58 161 0.0 0.0 0.00 0.00 0.00 77 1011.8
20240226115545 58 193 0.0 0.0 0.00 0.00 0.00 78 1011.8
20240226115044 57 171 0.0 0.0 0.00 0.00 0.00 85 1011.7
20240226114544 57 171 0.0 0.0 0.00 0.00 0.00 85 1011.7
20240226114043 57 171 0.0 0.0 0.00 0.00 0.00 85 1011.8
20240226113542 57 171 0.0 0.0 0.00 0.00 0.00 85 1011.7
20240226113042 57 171 0.0 0.0 0.00 0.00 0.00 85 1011.8
20240226112540 57 171 0.0 0.0 0.00 0.00 0.00 85 1011.9
20240226112039 57 171 0.0 0.0 0.00 0.00 0.00 85 1011.9
20240226111538 57 171 0.0 0.0 0.00 0.00 0.00 85 1011.9
20240226111037 57 171 0.0 0.0 0.00 0.00 0.00 85 1011.8
20240226110537 57 171 0.0 0.0 0.00 0.00 0.00 85 1011.9
20240226110036 58 191 0.0 0.0 0.00 0.00 0.00 84 1011.9
20240226105535 58 191 0.0 0.0 0.00 0.00 0.00 84 1012.0
20240226105034 58 191 0.0 0.0 0.00 0.00 0.00 84 1012.0
20240226104533 58 191 0.0 0.0 0.00 0.00 0.00 84 1011.9
20240226104032 58 191 0.0 0.0 0.00 0.00 0.00 84 1012.0
20240226103531 58 191 0.0 0.0 0.00 0.00 0.00 84 1012.0
20240226103031 58 191 0.0 0.0 0.00 0.00 0.00 84 1012.1
20240226102529 58 191 0.0 0.0 0.00 0.00 0.00 84 1011.8
20240226102028 59 162 0.0 0.0 0.00 0.00 0.00 84 1011.9
20240226101527 59 162 0.0 0.0 0.00 0.00 0.00 84 1011.8
20240226101025 60 162 0.0 0.0 0.00 0.00 0.00 83 1011.9
20240226100523 60 162 0.0 0.0 0.00 0.00 0.00 83 1012.0
20240226100022 60 162 0.0 0.0 0.00 0.00 0.00 83 1011.7
20240226095521 60 162 0.0 0.0 0.00 0.00 0.00 83 1011.8
20240226095020 60 205 1.0 1.0 0.00 0.00 0.00 83 1011.8
20240226094518 60 152 1.0 2.0 0.00 0.00 0.00 83 1011.7
20240226094018 59 197 0.0 0.0 0.00 0.00 0.00 85 1011.9
20240226093518 59 197 0.0 0.0 0.00 0.00 0.00 85 1011.6
20240226093016 59 197 0.0 0.0 0.00 0.00 0.00 85 1011.8
20240226092515 59 197 0.0 0.0 0.00 0.00 0.00 85 1011.8
20240226092014 59 197 0.0 0.0 0.00 0.00 0.00 85 1011.6
20240226091513 59 197 0.0 0.0 0.00 0.00 0.00 85 1011.7
20240226091011 59 197 0.0 0.0 0.00 0.00 0.00 85 1011.8
20240226090511 59 179 0.0 1.0 0.00 0.00 0.00 86 1011.8
20240226090011 59 172 0.0 0.0 0.00 0.00 0.00 85 1011.8
20240226085511 59 172 0.0 0.0 0.00 0.00 0.00 85 1011.8
20240226085011 59 172 0.0 0.0 0.00 0.00 0.00 85 1012.0
20240226084511 59 172 0.0 0.0 0.00 0.00 0.00 85 1011.9
20240226084009 59 172 0.0 0.0 0.00 0.00 0.00 85 1011.9
20240226083508 59 172 0.0 0.0 0.00 0.00 0.00 85 1011.8
20240226083005 59 172 0.0 0.0 0.00 0.00 0.00 85 1011.8
20240226082503 59 172 0.0 0.0 0.00 0.00 0.00 85 1012.0
20240226082001 59 173 0.0 0.0 0.00 0.00 0.00 85 1012.1
20240226081500 0 0.0 0.0 0.00 0.00 0.00 1012.2
20240226080959 0 0.0 0.0 0.00 0.00 0.00 1012.3
20240226080458 0 0.0 0.0 0.00 0.00 0.00 1012.2
20240226075956 0 0.0 0.0 0.00 0.00 0.00 1012.2
20240226075454 0 0.0 0.0 0.00 0.00 0.00 1012.2
20240226074953 0 0.0 0.0 0.00 0.00 0.00 1012.6
20240226074453 0 0.0 0.0 0.00 0.00 0.00 1012.4
20240226073952 0 0.0 0.0 0.00 0.00 0.00 1012.4
20240226073452 0 0.0 0.0 0.00 0.00 0.00 1012.4
20240226072950 0 0.0 0.0 0.00 0.00 0.00 1012.5
20240226072449 0 0.0 0.0 0.00 0.00 0.00 1012.5
20240226071948 0 0.0 0.0 0.00 0.00 0.00 1012.6
20240226071446 0 0.0 0.0 0.00 0.00 0.00 1012.5
20240226070946 0 0.0 0.0 0.00 0.00 0.00 1012.7
20240226070446 0 0.0 0.0 0.00 0.00 0.00 1012.4
20240226065945 0 0.0 0.0 0.00 0.00 0.00 1012.5
20240226065444 0 0.0 0.0 0.00 0.00 0.00 1012.6
20240226064942 0 0.0 0.0 0.00 0.00 0.00 1012.5
20240226064440 0 0.0 0.0 0.00 0.00 0.00 1012.3
20240226063938 0 0.0 0.0 0.00 0.00 0.00 1012.4
20240226063436 0 0.0 0.0 0.00 0.00 0.00 1012.6
20240226062936 0 0.0 0.0 0.00 0.00 0.00 1012.6
20240226062433 0 0.0 0.0 0.00 0.00 0.00 1012.6
20240226061931 0 0.0 0.0 0.00 0.00 0.00 1012.7
20240226061431 0 0.0 0.0 0.00 0.00 0.00 1012.5
20240226060931 0 0.0 0.0 0.00 0.00 0.00 1012.8
20240226060429 0 0.0 0.0 0.00 0.00 0.00 1012.7
20240226055924 0 0.0 0.0 0.00 0.00 0.00 1012.8
20240226055424 0 0.0 0.0 0.00 0.00 0.00 1012.8
20240226054923 0 0.0 0.0 0.00 0.00 0.00 1012.8
20240226054422 0 0.0 0.0 0.00 0.00 0.00 1012.7
20240226053921 0 0.0 0.0 0.00 0.00 0.00 1012.8
20240226053420 0 0.0 0.0 0.00 0.00 0.00 1012.7
20240226052920 0 0.0 0.0 0.00 0.00 0.00 1012.7
20240226052419 0 0.0 0.0 0.00 0.00 0.00 1012.6
20240226051919 0 0.0 0.0 0.00 0.00 0.00 1012.7
20240226051418 0 0.0 0.0 0.00 0.00 0.00 1012.7
20240226050918 0 0.0 0.0 0.00 0.00 0.00 1012.6